Content
SEND FEEDBACK

Daily
Averages
Monthly
Summary
Canada

DELTA, BRITISH COLUMBIA


Home > North America > Canada > British Columbia
Elevation: 30 feet     Latitude: 49 10N     Longitude: 123 10W

WEATHER
 
SELECT A DAY
Number of Records: 253,266;   Date Range: 5/15/97 - 10/30/14
 
SHARE

PRINT THIS DATA

[ ← Previous Day ]
WEATHER ALMANAC - MAY 12, 2013
[ Next Day → ]
[ °C ]   °F
Weather ElementAverageHighLow
Temperature57.6 °F62.6 °F (1:55 pm)53.6 °F (12:35 am)
Dewpoint56.4 °F59 °F (5:55 pm)53.6 °F (12:35 am)
Humidity96 %100 % (12:35 am)82 % (1:55 pm)
Barometer30.02 in30.06 in (12:15 pm)29.98 in (7:55 pm)
Wind Speed4.2 mph10.4 mph (1:55 pm)
Weather ElementAverage
Visibility7.2 mi
Wind DirectionESE (105.5 °)

Weather ElementTotal
Precipitation0.17 in
Heating Degree Days6.9 (Base 65)
Growing Degree Days8.1 (Base 50)
Averaged from 67 records on May 12, 2013
WEATHER CONDITIONS BREAKOUT
WIND DIRECTION BREAKOUT
WEATHER BY HOUR - MAY 12, 2013
[ °C ]   °F
Local TimeTemperatureDewpointHumidityBarometerVisibilityWind DirectionWind SpeedGust SpeedPrecipitationEventsConditions
12:35 AM53.6 °F53.6 °F100 %30.01 in9.0 miCalmMostly Cloudy
12:55 AM55.4 °F53.6 °F94 %30.01 in8.0 miCalmRainLight Rain
1:15 AM55.4 °F53.6 °F94 %30.01 in6.0 miCalmRainLight Rain
1:55 AM55.4 °F55.4 °F100 %30.03 in10.0 miCalmOvercast
2:15 AM55.4 °F53.6 °F94 %30.01 in3.0 miCalmRainRain
2:35 AM55.4 °F53.6 °F94 %30.01 in6.0 miCalmRainLight Rain
2:55 AM53.6 °F53.6 °F100 %30.01 in4.0 miNorthRainLight Rain
3:15 AM55.4 °F55.4 °F100 %30.01 in3.0 miNorthRainLight Rain
3:35 AM55.4 °F55.4 °F100 %30.01 in2.5 miCalmRainRain
3:55 AM55.4 °F55.4 °F100 %30.01 in3.0 miNorthRainRain
4:15 AM53.6 °F53.6 °F100 %30.02 in3.0 miCalm0.02 inRainRain
4:35 AM53.6 °F53.6 °F100 %30.00 in3.0 miCalm0.04 inRainLight Rain
4:55 AM53.6 °F53.6 °F100 %30.00 in5.0 miSE (140°)4.6 mph0.04 inMostly Cloudy
5:15 AM55.4 °F55.4 °F100 %29.99 in5.0 miSouth (190°)9.2 mphRainLight Rain
5:35 AM55.4 °F55.4 °F100 %29.99 in5.0 miCalmRainLight Rain
5:55 AM55.4 °F55.4 °F100 %30.01 in8.0 miSSW (210°)5.8 mphClear
6:15 AM55.4 °F55.4 °F100 %30.02 in9.0 miSouth (170°)4.6 mphMostly Cloudy
6:35 AM55.4 °F55.4 °F100 %30.01 in7.0 miSouth (180°)4.6 mphOvercast
6:55 AM55.4 °F55.4 °F100 %30.02 in7.0 miSouth (190°)9.2 mphOvercast
7:15 AM55.4 °F55.4 °F100 %30.03 in7.0 miSouth (190°)8.1 mphRainLight Rain
7:35 AM55.4 °F55.4 °F100 %30.03 in7.0 miSouth (180°)8.1 mphOvercast
7:55 AM55.4 °F55.4 °F100 %30.03 in8.0 miSouth (190°)6.9 mphOvercast
8:15 AM55.4 °F55.4 °F100 %30.04 in8.0 miSouth (190°)5.8 mphOvercast
8:35 AM57.2 °F55.4 °F94 %30.04 in8.0 miSouth (180°)3.5 mphOvercast
8:55 AM57.2 °F55.4 °F94 %30.04 in8.0 miSouth (180°)4.6 mphOvercast
9:15 AM57.2 °F57.2 °F100 %30.04 in8.0 miCalmOvercast
9:35 AM57.2 °F57.2 °F100 %30.04 in8.0 miSouth (170°)5.8 mphRainLight Rain
9:55 AM57.2 °F57.2 °F100 %30.04 in9.0 miSouth (180°)4.6 mphOvercast
10:15 AM57.2 °F57.2 °F100 %30.04 in8.0 miSouth (190°)3.5 mphOvercast
10:35 AM59.0 °F57.2 °F94 %30.04 in8.0 miSouth (190°)9.2 mphMostly Cloudy
10:55 AM59.0 °F57.2 °F94 %30.04 in9.0 miSouth (190°)6.9 mphOvercast
11:15 AM59.0 °F57.2 °F94 %30.04 in6.0 miSSW (200°)9.2 mphRainLight Rain
11:35 AM59.0 °F57.2 °F94 %30.05 in8.0 miSouth (190°)6.9 mphOvercast
11:55 AM59.0 °F57.2 °F94 %30.05 in5.0 miSouth (180°)3.5 mphOvercast
12:15 PM59.0 °F57.2 °F94 %30.06 in3.0 miSouth (180°)5.8 mphOvercast
12:55 PM59.0 °F57.2 °F94 %30.05 in9.0 miSouth (190°)8.1 mphOvercast
1:15 PM59.0 °F57.2 °F94 %30.05 in8.0 miSouth (190°)6.9 mphOvercast
1:35 PM60.8 °F57.2 °F88 %30.05 in9.0 miSouth (180°)6.9 mphOvercast
1:55 PM62.6 °F57.2 °F82 %30.05 in10.0 miSouth (180°)10.4 mphMostly Cloudy
2:15 PM62.6 °F57.2 °F82 %30.05 in9.0 miSouth (180°)6.9 mphScattered Clouds
2:35 PM62.6 °F57.2 °F82 %30.05 in9.0 miSouth (180°)9.2 mphClear
2:55 PM62.6 °F57.2 °F82 %30.04 in10.0 miSouth (180°)8.1 mphClear
3:35 PM60.8 °F57.2 °F88 %30.04 in10.0 miSouth (190°)10.4 mphClear
3:55 PM62.6 °F57.2 °F82 %30.04 in9.0 miSouth (180°)6.9 mphPartly Cloudy
4:15 PM62.6 °F57.2 °F82 %30.03 in9.0 miSouth (190°)9.2 mphPartly Cloudy
4:35 PM60.8 °F57.2 °F88 %30.02 in4.0 miSSW (200°)9.2 mphRainLight Rain
4:55 PM60.8 °F57.2 °F88 %30.02 in9.0 miSSW (210°)8.1 mphRainLight Rain
5:15 PM60.8 °F57.2 °F88 %30.01 in7.0 miSSW (210°)6.9 mphRainLight Rain
5:35 PM59.0 °F57.2 °F94 %30.02 in1.2 miNorth0.03 inRainHeavy Rain
5:55 PM59.0 °F59.0 °F100 %30.01 in5.0 miCalm0.04 inRainLight Rain
6:15 PM59.0 °F59.0 °F100 %30.00 in9.0 miSouth (190°)4.6 mphClear
6:35 PM59.0 °F59.0 °F100 %29.99 in7.0 miCalmRainLight Rain
7:15 PM59.0 °F59.0 °F100 %29.99 in3.0 miCalmRainLight Rain
7:35 PM59.0 °F59.0 °F100 %29.99 in5.0 miCalmScattered Clouds
7:55 PM59.0 °F59.0 °F100 %29.98 in6.0 miCalmMostly Cloudy
8:15 PM57.2 °F57.2 °F100 %29.99 in5.0 miCalmOvercast
8:35 PM57.2 °F57.2 °F100 %29.98 in8.0 miCalmOvercast
8:55 PM57.2 °F57.2 °F100 %29.98 in10.0 miCalmOvercast
9:15 PM59.0 °F57.2 °F94 %29.98 in9.0 miCalmOvercast
9:35 PM57.2 °F57.2 °F100 %29.98 in10.0 miCalmOvercast
9:55 PM57.2 °F57.2 °F100 %29.99 in10.0 miCalmOvercast
10:15 PM57.2 °F57.2 °F100 %29.99 in10.0 miCalmMostly Cloudy
10:35 PM57.2 °F57.2 °F100 %29.99 in10.0 miCalmMostly Cloudy
10:55 PM57.2 °F57.2 °F100 %29.99 in10.0 miCalmMostly Cloudy
11:15 PM57.2 °F55.4 °F94 %29.99 in10.0 miSouth (180°)3.5 mphOvercast
11:35 PM55.4 °F55.4 °F100 %29.99 in10.0 miSSW (200°)9.2 mphOvercast
11:55 PM55.4 °F55.4 °F100 %30.00 in10.0 miSouth (180°)8.1 mphOvercast
Hourly data recorded from CZBB, located miles away from Delta, British Columbia







STORIES FROM OUR PARTNERS